Location: USNO
(38.9242°N, 77.0663°W)
Time: 18:02:29
(UTC-04:00)

Hubble Space Telescope - Pass Details

Date: 10 October 2017
Orbit: 537 x 541 km, 28.5° (Epoch: 19 October)

Event Time Altitude Azimuth Distance (km) Brightness Sun altitude
Exits shadow 05:08:17 12° 162° (SSE) 1,674 3.3 -24.9°
Drops below altitude 10° 05:08:49 10° 155° (SSE) 1,786 3.6 -24.8°
Sets 05:11:50 0° 132° (SE) 2,676 4.8 -24.3°
